Wetbulb
61.93 61.41 60.23 58.68 57.74 57.25 56.71 55.66 54.29 53.93 53.97 53.91 53.20 52.71 52.17 51.63 50.97 50.70 50.61 50.56 50.30 50.17 50.23 50.36 50.51 50.50 50.49 50.64 50.23 49.76 49.49 49.15 48.72 47.66 46.98 47.30 47.79 47.94 47.87 48.19 48.06 47.96 47.78 47.40 47.11 46.85 46.48 46.32 46.00 45.73 45.51 45.57 45.64 45.62 45.64 45.45 45.55 45.41 45.11 44.81 44.55 44.54 44.38 44.10 43.74 43.48 43.35 43.25 43.22
61.56 61.04 59.65 56.99 56.22 56.46 56.73 55.54 54.66 54.09 53.91 54.24 53.69 53.20 52.49 51.97 51.29 50.87 50.78 50.73 50.70 50.70 50.77 50.77 50.68 50.90 50.91 50.64 50.10 49.76 49.35 48.65 48.12 47.42 47.10 47.56 48.00 48.01 47.94 48.06 47.97 47.76 47.36 47.03 46.79 46.53 46.21 46.30 45.91 45.45 45.31 45.40 45.44 45.35 45.30 45.20 45.34 45.19 44.85 44.61 44.49 44.48 44.38 44.21 44.02 43.84 43.72 43.54 43.52
61.71 60.97 59.86 58.91 58.04 57.39 56.73 55.69 55.26 54.77 54.52 54.19 53.93 53.50 52.90 52.35 51.73 51.29 50.96 50.98 51.13 51.15 51.10 50.91 50.95 51.04 51.06 50.78 50.16 49.74 49.18 48.46 47.61 47.26 47.29 47.74 48.12 48.06 47.93 47.97 47.82 47.36 46.83 46.79 46.66 46.39 46.32 46.27 45.68 45.07 44.75 44.97 45.18 45.02 44.98 45.30 45.36 45.16 44.83 44.60 44.55 44.46 44.38 44.10 44.28 44.10 43.85 43.71 43.61
61.99 61.04 59.79 59.14 58.33 57.75 57.02 56.14 55.63 55.15 54.69 54.31 54.11 53.61 53.00 52.54 52.12 51.65 51.53 51.54 51.41 51.22 51.31 51.18 51.09 51.04 50.92 50.69 50.20 49.56 48.72 47.55 47.32 47.39 47.49 47.79 48.03 48.11 48.04 48.05 47.72 47.32 47.11 47.06 46.71 46.51 46.50 46.43 45.67 45.15 44.96 45.21 45.19 45.04 44.98 45.15 45.23 45.14 45.00 44.95 44.77 44.50 44.36 44.28 44.34 44.21 44.01 43.88 43.76
61.84 61.04 59.87 58.74 58.33 57.97 57.54 56.93 56.13 55.19 54.59 54.37 53.97 53.45 52.94 52.45 52.15 51.83 51.58 51.25 51.09 51.11 51.46 51.73 51.38 51.05 50.71 50.62 49.98 49.25 48.41 47.46 46.12 46.67 47.60 47.78 48.06 48.07 47.99 47.85 47.50 47.29 47.08 46.92 46.71 46.71 46.69 46.41 45.74 45.30 45.40 45.57 45.36 45.13 45.16 45.43 45.29 45.21 45.06 45.04 44.79 44.67 44.52 44.31 44.25 44.17 43.96 43.63 43.70
61.54 61.11 60.23 59.03 58.19 57.72 57.47 56.95 56.37 55.30 54.43 54.10 53.87 53.33 52.64 52.26 52.01 51.76 51.49 51.15 51.24 51.67 51.81 51.05 50.51 50.03 49.81 50.51 49.67 48.74 48.03 47.62 47.00 47.21 47.60 47.60 47.90 47.97 47.90 47.68 47.47 47.15 46.94 46.82 46.87 46.84 46.72 46.23 45.41 45.30 45.40 45.52 45.27 45.33 45.50 45.63 45.34 45.01 44.68 44.56 44.51 44.56 44.54 44.32 44.13 44.03 43.75 43.39 43.42
61.44 61.01 60.29 59.06 58.24 57.36 56.81 56.82 56.17 55.24 54.45 54.08 53.91 53.29 52.73 52.37 52.17 52.19 52.00 51.59 51.60 51.60 51.25 50.02 50.02 49.80 49.64 49.74 48.88 48.15 47.58 47.27 47.38 47.61 47.64 47.54 47.74 47.64 47.39 47.40 47.29 47.08 46.86 46.65 46.71 46.66 46.46 46.18 45.29 44.70 44.45 44.39 44.96 45.35 45.49 45.56 45.26 44.84 44.32 43.97 44.13 44.29 44.40 44.34 44.26 44.02 43.71 43.48 43.46
61.46 60.89 60.17 59.32 58.40 57.54 56.89 56.46 56.03 55.18 54.33 53.72 53.50 53.38 53.19 52.91 52.61 52.56 52.37 52.02 51.67 51.39 50.97 50.36 50.77 50.48 49.76 49.06 48.09 47.46 47.18 47.14 47.14 47.34 47.62 47.70 47.67 47.52 47.28 47.08 46.94 46.73 46.59 46.57 46.50 46.39 46.25 46.02 45.22 44.89 44.64 44.64 44.81 45.09 45.29 45.39 45.20 44.67 44.23 43.81 43.84 44.23 44.54 44.63 44.65 44.31 43.79 43.60 43.64
61.15 60.74 60.17 59.45 58.69 57.97 57.17 56.30 55.89 55.31 54.67 53.90 53.71 53.75 53.69 53.68 53.34 52.93 52.44 51.88 51.54 51.33 51.12 50.71 50.56 50.19 49.61 48.85 47.85 47.19 46.86 46.69 46.79 47.25 47.65 47.75 47.50 47.26 46.93 46.79 46.54 46.42 46.41 46.50 46.45 46.33 45.99 45.82 45.25 45.00 44.84 44.61 44.68 44.94 45.16 45.23 44.72 44.35 44.11 43.94 43.87 44.05 44.23 44.78 44.78 44.49 44.17 43.90 43.88
61.02 60.67 60.18 59.40 58.77 58.05 57.39 56.81 55.89 55.43 55.12 55.09 54.87 54.59 53.71 51.92 52.71 52.97 52.65 52.09 51.74 51.60 51.32 50.64 50.21 49.63 48.93 48.66 47.68 47.16 46.97 46.97 46.92 47.11 47.23 47.29 47.04 46.78 46.58 46.29 46.17 46.11 46.08 46.25 46.28 46.26 46.04 45.72 45.30 45.09 45.02 44.96 44.88 44.99 45.16 45.09 44.39 44.02 43.86 43.95 43.93 43.92 43.97 44.37 44.61 44.51 44.29 44.10 44.13
61.01 60.59 60.02 59.32 58.77 57.97 57.25 57.11 56.03 55.30 54.93 55.16 55.99 55.63 54.23 52.02 52.93 53.13 52.85 52.43 52.23 51.74 51.18 50.50 49.71 49.01 48.40 48.02 47.51 47.12 46.98 47.11 47.12 47.13 47.13 47.20 46.86 46.66 46.40 46.12 46.00 45.93 45.86 46.02 46.11 46.07 45.83 45.56 45.27 45.06 44.92 45.09 45.09 45.04 44.95 44.91 44.17 43.79 43.71 44.02 44.13 43.93 43.71 44.03 44.37 44.51 44.44 44.35 44.35
61.24 60.79 60.21 59.57 58.96 58.11 57.47 56.96 56.02 55.32 54.86 54.75 55.46 55.25 54.51 53.25 53.46 53.15 52.57 52.37 52.29 51.88 51.32 50.63 49.57 48.54 47.89 47.57 47.25 46.98 46.92 47.26 47.34 47.27 47.14 47.20 47.01 46.67 46.34 46.08 45.81 45.81 45.81 45.91 45.99 45.89 45.60 45.30 45.15 44.88 44.85 44.95 44.93 44.88 44.73 44.59 43.98 43.56 43.35 43.81 43.90 43.78 43.69 43.74 44.12 44.34 44.58 44.63 44.46
61.44 60.99 60.33 59.62 59.08 58.32 57.61 56.89 56.31 55.45 54.89 54.52 54.36 54.08 53.67 52.91 53.01 52.87 52.54 52.14 52.08 51.88 51.40 50.42 49.17 48.36 47.77 47.39 47.19 47.13 47.20 47.34 47.47 47.34 47.14 47.14 46.81 46.48 46.15 45.89 45.69 45.69 45.74 45.90 45.98 45.89 45.61 45.19 45.05 44.73 44.57 44.48 44.55 44.54 44.47 44.22 43.63 43.19 42.92 42.95 43.16 43.29 43.37 43.50 43.95 44.38 44.73 44.76 44.41
61.75 61.14 60.49 59.85 59.08 58.32 57.54 56.82 56.31 55.52 54.96 54.61 53.83 53.27 52.93 52.71 52.70 52.93 53.05 52.45 52.09 51.88 51.33 50.02 48.83 48.02 47.64 47.40 47.34 47.40 47.47 47.54 47.54 47.47 47.27 46.94 46.68 46.28 46.02 45.76 45.76 45.69 45.73 45.86 46.00 45.88 45.68 45.19 45.05 44.84 44.61 44.32 44.36 44.32 44.24 43.79 43.14 42.69 42.37 42.06 42.32 42.58 43.07 43.53 44.05 44.47 44.69 44.77 44.42
61.68 61.24 60.65 60.01 59.09 58.24 57.39 56.82 56.17 55.60 55.10 54.60 53.66 53.05 52.65 52.44 52.62 53.22 53.60 53.13 52.30 51.67 51.05 49.61 48.50 47.83 47.51 47.47 47.54 47.60 47.67 47.67 47.66 47.53 47.27 46.74 46.48 46.15 45.95 45.76 45.76 45.68 45.73 45.80 45.90 45.86 45.68 45.33 45.23 45.01 44.75 44.28 44.02 43.88 43.78 43.24 42.87 42.52 42.18 41.92 42.06 42.42 42.96 43.51 43.98 44.27 44.53 44.72 44.39
61.69 61.17 60.66 60.01 58.87 57.95 57.17 56.60 56.10 55.60 55.04 54.30 53.72 53.25 52.85 52.57 52.99 53.39 53.61 53.11 52.28 51.40 50.57 49.27 48.52 48.11 47.78 47.32 47.54 47.74 47.86 47.86 47.59 47.40 47.14 46.74 46.41 46.08 45.89 45.76 45.62 45.69 45.68 45.64 45.48 45.48 45.52 45.83 45.72 45.25 44.60 44.08 43.64 43.40 43.15 42.67 42.52 42.43 42.26 42.44 42.61 42.82 43.06 43.26 43.64 44.00 44.32 44.52 44.28
61.61 61.17 60.58 59.92 58.79 57.73 57.02 56.53 56.16 55.74 55.10 54.25 53.88 53.60 53.26 52.92 53.04 53.00 52.69 52.45 52.01 51.12 50.17 49.35 48.67 48.26 47.91 47.29 47.45 47.67 47.80 47.80 47.60 47.33 47.07 46.68 46.35 46.02 45.82 45.82 45.75 45.75 45.74 45.33 44.84 44.67 44.93 45.52 45.57 44.98 44.20 43.78 43.28 43.01 42.82 42.36 42.36 42.43 42.60 42.78 42.99 43.10 43.32 43.18 43.57 43.93 44.12 44.27 43.98
61.53 61.16 60.58 59.77 58.77 57.78 57.01 56.52 56.30 55.94 55.52 54.75 54.32 54.03 53.67 53.12 52.74 52.68 52.55 52.38 52.07 51.26 50.37 49.76 49.15 48.67 48.19 47.84 47.78 47.79 47.74 47.87 47.60 47.47 47.20 46.94 46.48 46.09 45.96 46.02 45.95 45.95 45.74 45.00 44.41 44.16 44.09 44.26 44.20 43.94 43.56 43.24 42.96 42.83 42.67 42.57 42.63 42.81 43.08 43.06 43.18 43.38 43.65 43.69 44.05 44.22 44.20 44.17 43.81
61.61 61.09 60.58 59.85 58.84 57.99 57.15 56.37 56.30 56.16 55.88 55.32 54.89 54.54 54.03 53.40 52.85 52.62 52.63 52.47 51.92 51.32 50.85 50.30 49.69 49.15 48.67 48.20 48.12 47.72 47.52 47.94 47.80 47.53 47.27 47.07 46.68 46.41 46.15 46.09 46.08 46.08 45.81 45.06 44.50 44.11 43.82 43.52 43.24 43.03 42.81 42.58 42.62 42.73 42.80 42.95 43.25 43.57 43.62 43.52 43.44 43.61 43.89 44.12 44.42 44.46 44.41 44.22 43.93
61.62 61.25 60.72 60.05 59.26 58.41 57.64 56.86 56.73 56.45 56.17 55.67 55.38 54.82 54.26 53.69 53.21 52.65 52.37 52.01 51.85 51.72 51.46 50.85 50.16 49.62 49.08 48.60 48.27 48.00 47.79 47.92 47.80 47.54 47.27 47.14 46.88 46.61 46.35 46.09 45.95 45.89 45.68 45.13 44.55 43.95 43.40 43.02 42.90 42.63 42.52 42.05 42.34 42.65 42.87 43.28 43.67 43.95 44.09 43.85 43.82 43.97 44.21 44.51 44.69 44.74 44.59 44.39 44.24
61.77 61.38 61.07 60.62 59.83 59.04 58.34 57.71 57.35 57.01 56.51 55.94 55.58 55.02 54.33 53.77 53.34 52.71 52.22 51.74 51.64 51.63 51.59 51.40 50.71 50.03 49.42 48.94 48.40 48.20 48.06 47.89 47.72 47.47 47.14 47.07 46.81 46.61 46.41 45.89 45.56 45.36 45.15 44.66 44.05 43.57 43.12 42.95 42.78 42.46 42.17 42.00 42.37 42.58 43.11 43.61 44.09 44.30 44.22 44.08 44.17 44.32 44.69 44.93 44.96 44.79 44.66 44.54 44.46
62.00 61.75 61.49 60.96 60.39 59.69 58.98 58.42 57.91 57.34 56.78 56.21 55.79 55.15 54.45 53.54 52.91 52.57 52.16 51.88 51.62 51.55 51.61 51.68 51.25 50.57 49.89 49.48 48.86 48.45 48.09 47.81 47.73 47.50 47.26 47.13 46.81 46.48 46.22 45.81 45.16 44.64 44.11 43.70 43.54 43.42 43.26 43.12 42.91 42.46 42.17 42.37 42.38 42.58 43.07 43.74 44.30 44.50 44.42 44.32 44.47 44.66 44.84 45.02 44.95 44.81 44.61 44.58 44.63
62.16 61.89 61.70 61.32 60.83 59.85 58.93 58.63 58.26 57.69 57.05 56.35 56.00 55.43 54.64 53.73 53.03 52.64 52.51 52.22 51.50 51.39 51.61 51.76 51.68 51.24 50.51 49.96 49.33 48.64 47.99 47.56 47.50 47.28 47.12 47.13 46.81 46.54 46.21 45.71 44.89 44.01 43.50 43.33 43.60 43.58 43.54 43.32 42.99 42.54 42.33 42.69 42.41 42.58 43.00 43.75 44.30 44.45 44.52 44.28 44.50 44.64 44.73 44.81 44.71 44.61 44.46 44.44 44.54
62.50 62.17 61.93 61.70 61.33 60.62 59.83 59.34 58.62 57.91 57.27 56.70 56.14 55.49 54.78 53.72 53.04 52.50 52.30 52.09 51.67 51.53 51.52 51.72 51.69 51.57 51.21 50.27 49.26 48.51 47.74 47.08 46.85 46.70 46.78 46.67 46.27 45.81 45.27 44.42 44.29 44.37 44.30 44.13 43.91 43.57 43.18 42.81 42.71 42.53 42.31 42.30 42.20 42.58 43.29 44.13 44.46 44.60 44.59 44.45 44.60 44.64 44.59 44.46 44.27 44.08 44.04 44.13 44.17
62.72 62.34 62.03 61.85 61.56 61.05 60.41 59.72 58.93 58.07 57.50 56.92 56.50 55.64 54.78 53.87 53.04 52.43 52.09 51.88 51.74 51.74 51.73 51.73 51.63 51.61 51.12 49.88 48.80 48.08 47.27 46.50 45.94 45.65 45.51 45.20 44.96 44.64 44.40 44.20 44.50 44.64 44.39 43.57 42.42 41.63 41.26 41.05 41.96 42.12 42.06 41.91 42.04 42.62 43.50 44.26 44.55 44.65 44.77 44.83 44.59 44.31 44.03 43.73 43.68 43.61 43.64 43.71 43.86
62.57 62.27 61.96 61.95 61.57 61.22 60.58 59.87 59.16 58.45 57.74 57.23 56.51 55.73 54.73 53.88 53.26 52.78 52.44 52.09 51.87 51.72 51.50 51.42 51.04 50.23 49.42 49.09 48.31 47.33 46.37 45.47 45.27 45.09 44.70 43.86 43.63 43.60 43.77 44.00 44.30 44.46 44.13 42.86 41.14 40.17 39.94 40.15 40.17 40.31 40.75 41.96 42.01 42.46 43.21 44.04 44.29 44.56 44.79 44.93 44.51 43.99 43.36 42.89 42.82 43.09 43.39 43.61 43.57
62.11 61.89 61.82 61.82 61.52 61.15 60.66 60.17 59.39 58.47 57.68 56.89 56.46 55.67 54.95 54.32 53.83 53.20 52.65 52.15 51.92 51.75 51.60 51.29 50.83 49.16 47.85 48.59 47.68 46.49 45.26 44.48 44.61 44.60 44.15 43.39 42.98 43.07 43.37 43.91 43.95 44.03 43.58 41.97 40.34 39.47 39.15 39.50 39.40 39.36 39.95 41.60 41.93 42.46 43.04 43.66 44.15 44.59 44.74 44.61 44.11 43.62 43.08 42.51 42.53 42.61 42.86 43.12 43.07
61.51 61.45 61.45 61.53 61.24 61.02 60.75 60.40 59.54 58.76 57.97 57.40 56.82 56.25 55.60 54.96 54.26 53.48 52.76 52.51 52.30 51.73 51.16 50.50 49.77 49.02 48.42 48.34 47.08 45.93 45.03 44.39 44.56 44.43 44.09 43.46 42.89 42.99 43.24 43.49 43.89 43.79 42.99 41.14 39.88 39.19 39.02 39.38 39.45 39.40 39.43 40.02 41.83 42.79 43.41 43.86 44.14 44.29 44.28 43.87 43.50 43.17 42.91 42.62 42.68 42.55 42.49 42.34 42.45
61.15 61.10 60.96 60.82 60.75 60.69 60.63 60.27 59.62 59.05 58.47 58.12 57.61 56.89 56.17 55.39 54.66 53.91 53.32 52.88 52.10 50.79 49.54 48.67 47.79 47.77 47.85 47.11 46.17 45.49 45.00 44.57 44.67 44.80 44.51 43.92 43.47 43.32 43.45 43.73 44.05 43.50 42.01 39.73 39.15 39.06 39.18 39.41 39.35 39.19 39.24 39.74 41.41 42.71 43.49 43.84 43.98 43.94 43.70 43.33 43.12 42.87 42.78 42.65 42.55 42.38 42.13 41.96 41.92
60.93 60.74 60.46 60.34 60.20 60.21 60.21 60.21 60.00 59.57 59.06 58.48 57.96 57.39 56.51 55.66 54.72 53.70 52.79 51.85 50.34 48.97 47.91 47.47 46.87 46.58 46.48 46.26 45.48 44.95 44.73 44.71 44.90 45.01 44.81 43.91 43.45 43.49 43.70 43.70 44.64 44.08 41.96 38.44 38.68 38.91 39.16 39.32 39.15 39.00 38.95 39.09 40.73 42.33 43.44 43.62 43.78 43.50 43.18 43.01 43.04 42.95 42.86 42.65 42.56 42.19 41.82 41.64 41.58
60.86 60.52 60.18 59.84 59.78 59.86 60.09 60.01 59.20 58.45 57.77 57.36 56.73 56.01 55.09 53.86 52.67 51.74 50.83 50.11 48.69 47.41 46.69 46.99 46.58 46.42 46.54 46.74 46.09 45.46 44.83 44.48 44.89 44.90 44.56 44.00 43.53 43.70 44.26 44.71 45.23 43.79 41.04 37.58 38.39 38.81 39.06 39.18 39.06 38.81 38.60 38.35 39.95 41.95 43.31 43.41 43.41 43.21 42.98 42.98 42.97 42.93 42.84 42.63 42.26 41.98 41.65 41.51 41.37
60.71 60.30 59.90 59.48 59.50 59.36 58.84 57.73 56.15 55.31 54.87 54.71 53.86 52.89 51.92 51.08 50.49 49.94 49.37 48.66 47.82 47.21 46.86 46.93 46.80 46.69 46.69 46.84 46.46 45.62 44.99 44.60 44.68 44.59 44.54 44.46 44.55 44.77 45.03 44.94 45.32 42.95 39.62 37.41 38.14 38.44 38.82 38.98 38.85 38.67 38.22 37.59 39.10 41.35 43.16 43.30 43.30 43.22 43.15 43.10 43.10 43.02 42.77 42.36 42.03 41.83 41.66 41.48 41.39
60.35 59.94 59.67 59.19 58.55 57.32 55.91 54.38 53.63 53.36 53.10 52.62 51.71 50.82 50.09 49.58 49.26 48.89 48.44 47.80 47.47 47.35 47.35 47.17 46.73 46.32 46.22 46.55 46.13 45.41 44.80 44.56 44.42 44.20 44.23 44.72 45.11 45.12 44.90 44.68 45.27 42.31 38.52 37.34 37.80 38.10 38.35 38.54 38.50 38.27 37.76 37.02 38.90 41.01 42.71 43.11 43.11 43.11 43.24 43.20 43.11 43.07 42.82 42.41 42.04 41.79 41.62 41.64 41.74
59.81 59.38 58.88 58.25 56.60 55.00 53.76 53.03 52.62 52.46 52.21 51.74 50.92 50.20 49.64 49.14 48.64 48.26 47.80 47.50 47.67 47.65 47.62 47.41 47.23 46.89 46.78 46.84 46.43 45.46 44.41 43.62 44.13 44.56 44.90 45.16 45.28 45.02 44.68 44.75 44.79 41.62 37.89 37.23 37.61 37.90 38.10 38.35 38.44 38.27 37.69 36.68 39.20 41.12 42.29 42.67 42.71 42.83 42.96 42.91 42.95 42.83 42.70 42.41 42.16 42.06 42.08 42.20 42.32
59.02 58.45 57.67 56.75 55.31 54.01 53.14 52.56 52.13 51.82 51.46 51.10 50.63 50.32 50.05 49.69 49.23 48.85 48.43 47.63 47.72 48.12 48.40 48.32 48.37 48.16 47.92 47.60 47.07 45.92 44.80 44.03 44.41 44.71 44.88 45.05 45.22 44.93 44.46 44.36 44.05 40.98 37.62 37.21 37.60 37.92 38.12 38.28 38.31 38.15 37.74 37.46 39.79 41.36 42.11 42.29 42.41 42.58 42.66 42.67 42.67 42.46 42.41 42.24 42.22 42.41 42.63 42.90 43.01
58.09 57.24 56.39 55.60 54.67 53.80 53.12 52.61 52.15 51.75 51.32 51.10 51.06 50.86 50.49 50.33 50.18 49.87 49.16 47.85 48.17 48.65 49.03 48.92 48.88 48.63 48.21 47.86 47.25 46.03 45.08 45.06 44.86 44.99 45.08 45.15 45.03 44.66 44.25 43.74 43.38 40.70 37.67 37.24 37.69 37.99 38.29 38.37 38.23 38.04 38.11 39.09 40.89 41.71 42.07 42.28 42.28 42.41 42.54 42.45 42.25 42.17 42.29 42.37 42.61 42.85 43.25 43.52 43.65
57.23 56.25 55.46 54.95 54.45 53.86 53.40 52.92 52.47 51.87 51.41 51.20 51.31 51.07 50.72 50.60 50.54 50.32 49.80 48.61 49.13 49.17 49.19 49.23 49.06 48.78 48.37 48.02 47.25 46.43 45.89 45.86 45.56 45.47 45.23 44.72 44.42 44.05 43.57 42.83 43.03 40.77 38.02 37.14 37.70 38.09 38.30 38.48 38.26 38.18 38.64 40.29 41.46 42.04 42.10 42.10 42.05 42.19 42.23 42.16 42.03 42.17 42.38 42.58 42.95 43.28 43.59 43.86 43.57
56.51 55.82 55.17 54.81 54.38 53.88 53.41 53.01 52.41 51.84 51.42 51.22 51.22 51.10 50.99 50.76 50.61 50.43 49.79 48.41 49.26 49.39 49.23 49.38 49.32 49.08 48.81 48.51 47.70 47.09 46.72 46.53 45.96 45.60 45.21 44.37 43.83 43.30 42.74 42.17 42.75 41.39 39.26 37.49 37.73 38.12 38.34 38.57 38.35 38.27 38.77 40.55 41.74 42.02 41.98 41.88 41.84 41.73 41.66 41.72 41.81 42.11 42.50 42.83 43.20 43.49 43.68 43.83 42.21
56.15 55.67 55.18 54.68 54.32 53.82 53.23 52.64 52.19 51.79 51.41 51.16 50.99 50.94 50.87 50.78 50.67 50.44 49.95 49.04 49.83 49.89 49.63 49.62 49.64 49.51 49.07 48.14 47.90 47.46 47.15 46.86 46.02 45.28 44.54 44.00 43.26 42.41 41.76 42.03 42.78 42.02 40.29 37.93 37.90 38.12 38.39 38.67 38.50 38.26 38.55 40.10 41.60 42.05 42.05 41.87 41.61 41.47 41.49 41.56 41.57 42.01 42.53 43.08 43.33 43.52 43.71 43.82 41.51
55.80 55.53 55.04 54.68 54.25 53.75 53.11 52.43 52.16 51.87 51.59 51.27 50.87 50.71 50.56 50.56 50.28 50.26 50.24 50.10 50.47 50.43 50.15 49.95 49.89 49.80 49.08 47.36 47.60 47.40 46.96 46.31 45.90 45.03 44.10 43.43 42.70 41.51 40.86 42.10 43.14 42.86 41.25 38.56 38.07 38.20 38.49 38.68 38.59 38.30 38.39 40.04 41.49 42.16 42.11 41.85 41.43 41.23 41.14 41.35 41.42 41.74 42.19 42.87 43.27 43.49 43.51 43.71 42.28
55.66 55.18 54.68 54.32 54.03 53.68 53.11 52.46 52.06 51.83 51.66 51.34 50.95 50.56 50.29 50.03 50.13 50.46 50.83 50.95 50.80 50.56 50.27 49.99 49.89 49.66 48.71 46.74 46.83 46.63 46.12 45.34 45.24 44.92 44.20 42.77 42.54 41.71 41.30 42.77 43.78 43.90 42.88 40.52 38.94 38.47 38.57 38.68 38.67 38.39 38.51 39.45 41.30 42.07 42.17 41.74 41.22 40.90 40.81 41.04 41.25 41.59 41.99 42.50 42.84 42.96 43.00 43.11 43.11
MSLP
1014.78 1014.98 1015.26 1015.58 1015.82 1016.02 1016.26 1016.46 1016.62 1016.82 1017.02 1017.22 1017.38 1017.54 1017.78 1018.02 1018.34 1018.62 1018.86 1019.10 1019.30 1019.50 1019.62 1019.74 1019.90 1020.02 1020.18 1020.42 1020.58 1020.78 1020.98 1021.14 1021.46 1021.74 1021.98 1022.18 1022.30 1022.42 1022.58 1022.70 1022.86 1023.02 1023.18 1023.30 1023.42 1023.54 1023.62 1023.70 1023.78 1023.86 1023.98 1024.06 1024.14 1024.26 1024.42 1024.54 1024.58 1024.70 1024.74 1024.82 1024.90 1024.98 1025.06 1025.10 1025.14 1025.18 1025.26 1025.30 1025.34
1014.58 1014.82 1015.06 1015.38 1015.66 1015.86 1016.06 1016.26 1016.42 1016.66 1016.82 1016.98 1017.14 1017.34 1017.54 1017.78 1018.02 1018.30 1018.58 1018.82 1019.02 1019.26 1019.42 1019.54 1019.70 1019.86 1019.98 1020.22 1020.42 1020.62 1020.82 1021.06 1021.38 1021.62 1021.86 1021.98 1022.14 1022.26 1022.42 1022.66 1022.82 1022.98 1023.14 1023.26 1023.42 1023.54 1023.58 1023.66 1023.70 1023.82 1023.94 1024.02 1024.14 1024.22 1024.34 1024.42 1024.50 1024.54 1024.62 1024.70 1024.82 1024.90 1025.02 1025.10 1025.14 1025.22 1025.30 1025.30 1025.34
1014.42 1014.62 1014.90 1015.14 1015.42 1015.66 1015.86 1016.02 1016.18 1016.38 1016.58 1016.74 1016.90 1017.10 1017.34 1017.54 1017.82 1018.02 1018.26 1018.46 1018.74 1018.98 1019.14 1019.34 1019.50 1019.66 1019.86 1020.10 1020.30 1020.54 1020.74 1020.98 1021.26 1021.46 1021.66 1021.82 1021.94 1022.10 1022.26 1022.50 1022.70 1022.90 1023.06 1023.22 1023.34 1023.42 1023.50 1023.58 1023.66 1023.78 1023.86 1023.98 1024.06 1024.14 1024.26 1024.38 1024.42 1024.50 1024.54 1024.58 1024.70 1024.82 1024.90 1024.98 1025.10 1025.18 1025.26 1025.30 1025.30
1014.14 1014.42 1014.70 1014.94 1015.18 1015.38 1015.54 1015.70 1015.86 1016.06 1016.26 1016.50 1016.70 1016.90 1017.14 1017.38 1017.58 1017.82 1018.02 1018.26 1018.50 1018.74 1018.94 1019.14 1019.26 1019.50 1019.70 1019.98 1020.14 1020.42 1020.70 1020.98 1021.18 1021.34 1021.46 1021.58 1021.70 1021.90 1022.10 1022.34 1022.54 1022.78 1022.98 1023.14 1023.26 1023.42 1023.46 1023.54 1023.62 1023.70 1023.78 1023.90 1023.98 1024.02 1024.14 1024.26 1024.30 1024.42 1024.46 1024.50 1024.58 1024.70 1024.78 1024.86 1024.98 1025.10 1025.14 1025.22 1025.26
1013.90 1014.14 1014.46 1014.70 1014.90 1015.10 1015.26 1015.42 1015.58 1015.82 1016.06 1016.26 1016.46 1016.70 1016.98 1017.22 1017.42 1017.66 1017.86 1018.10 1018.26 1018.42 1018.62 1018.82 1019.06 1019.30 1019.54 1019.78 1020.06 1020.38 1020.66 1020.90 1021.14 1021.26 1021.34 1021.42 1021.58 1021.74 1021.94 1022.18 1022.42 1022.66 1022.86 1023.02 1023.18 1023.30 1023.42 1023.46 1023.54 1023.66 1023.70 1023.78 1023.86 1023.98 1024.02 1024.10 1024.18 1024.26 1024.38 1024.46 1024.54 1024.62 1024.70 1024.74 1024.82 1024.98 1025.10 1025.14 1025.22
1013.70 1013.98 1014.26 1014.54 1014.74 1014.90 1015.10 1015.26 1015.46 1015.70 1015.90 1016.10 1016.30 1016.54 1016.82 1017.06 1017.26 1017.46 1017.66 1017.82 1017.98 1018.18 1018.42 1018.62 1018.86 1019.14 1019.42 1019.70 1019.98 1020.30 1020.58 1020.82 1021.02 1021.14 1021.22 1021.34 1021.50 1021.66 1021.86 1022.02 1022.26 1022.50 1022.74 1022.94 1023.14 1023.26 1023.38 1023.42 1023.46 1023.54 1023.66 1023.70 1023.74 1023.86 1023.94 1024.02 1024.10 1024.14 1024.22 1024.34 1024.42 1024.54 1024.58 1024.66 1024.78 1024.86 1024.98 1025.02 1025.10
1013.46 1013.70 1013.98 1014.34 1014.62 1014.82 1014.98 1015.14 1015.38 1015.58 1015.82 1015.98 1016.14 1016.34 1016.62 1016.86 1017.10 1017.26 1017.46 1017.66 1017.86 1018.06 1018.26 1018.46 1018.66 1018.90 1019.22 1019.54 1019.86 1020.14 1020.42 1020.66 1020.82 1020.98 1021.14 1021.22 1021.42 1021.62 1021.82 1021.98 1022.18 1022.42 1022.62 1022.82 1023.02 1023.22 1023.30 1023.34 1023.42 1023.46 1023.54 1023.62 1023.70 1023.78 1023.86 1023.94 1023.98 1024.06 1024.14 1024.22 1024.38 1024.46 1024.54 1024.58 1024.70 1024.82 1024.90 1024.90 1024.98
1013.26 1013.54 1013.82 1014.14 1014.42 1014.66 1014.82 1014.98 1015.26 1015.54 1015.74 1015.86 1016.02 1016.22 1016.42 1016.74 1016.98 1017.22 1017.42 1017.66 1017.86 1017.98 1018.14 1018.26 1018.46 1018.70 1018.98 1019.30 1019.62 1019.94 1020.22 1020.42 1020.66 1020.82 1020.98 1021.14 1021.34 1021.54 1021.74 1021.94 1022.10 1022.26 1022.50 1022.70 1022.90 1023.06 1023.18 1023.26 1023.26 1023.38 1023.46 1023.54 1023.54 1023.66 1023.74 1023.86 1023.90 1023.98 1024.06 1024.14 1024.26 1024.42 1024.54 1024.54 1024.70 1024.74 1024.82 1024.82 1024.90
1013.06 1013.30 1013.58 1013.90 1014.22 1014.46 1014.66 1014.82 1015.06 1015.34 1015.62 1015.86 1015.98 1016.18 1016.50 1016.82 1017.10 1017.26 1017.42 1017.62 1017.74 1017.86 1017.98 1018.14 1018.30 1018.54 1018.82 1019.14 1019.42 1019.70 1019.98 1020.18 1020.42 1020.62 1020.82 1020.94 1021.14 1021.38 1021.62 1021.86 1021.98 1022.18 1022.38 1022.58 1022.78 1022.94 1023.06 1023.14 1023.18 1023.26 1023.34 1023.42 1023.46 1023.54 1023.66 1023.78 1023.86 1023.90 1023.98 1024.06 1024.18 1024.38 1024.50 1024.58 1024.66 1024.70 1024.70 1024.78 1024.82
1012.82 1013.10 1013.38 1013.70 1013.98 1014.26 1014.50 1014.74 1014.94 1015.18 1015.42 1015.70 1016.02 1016.34 1016.62 1016.86 1017.10 1017.26 1017.38 1017.46 1017.58 1017.74 1017.86 1017.98 1018.18 1018.42 1018.70 1018.98 1019.22 1019.50 1019.74 1019.94 1020.14 1020.34 1020.54 1020.70 1020.86 1021.10 1021.34 1021.58 1021.82 1021.98 1022.18 1022.42 1022.62 1022.82 1022.94 1022.98 1023.06 1023.14 1023.22 1023.34 1023.38 1023.46 1023.62 1023.74 1023.86 1023.90 1023.98 1023.98 1024.14 1024.26 1024.38 1024.54 1024.54 1024.58 1024.62 1024.66 1024.70
1012.54 1012.82 1013.14 1013.42 1013.78 1014.10 1014.34 1014.58 1014.82 1015.06 1015.30 1015.58 1015.98 1016.34 1016.62 1016.82 1016.94 1017.06 1017.18 1017.30 1017.50 1017.66 1017.82 1017.90 1018.14 1018.38 1018.62 1018.82 1019.10 1019.30 1019.54 1019.78 1019.98 1020.14 1020.34 1020.46 1020.66 1020.86 1021.10 1021.34 1021.54 1021.70 1021.94 1022.18 1022.42 1022.58 1022.74 1022.82 1022.90 1022.98 1023.10 1023.26 1023.34 1023.46 1023.58 1023.70 1023.86 1023.94 1023.98 1024.06 1024.14 1024.18 1024.26 1024.34 1024.42 1024.46 1024.46 1024.46 1024.54
1012.30 1012.58 1012.86 1013.18 1013.54 1013.86 1014.18 1014.42 1014.62 1014.90 1015.18 1015.46 1015.70 1016.06 1016.38 1016.58 1016.74 1016.90 1017.02 1017.22 1017.38 1017.54 1017.70 1017.86 1018.14 1018.30 1018.50 1018.70 1018.98 1019.22 1019.42 1019.58 1019.74 1019.94 1020.14 1020.30 1020.46 1020.66 1020.86 1021.10 1021.26 1021.50 1021.70 1021.90 1022.14 1022.34 1022.54 1022.70 1022.74 1022.82 1022.98 1023.14 1023.30 1023.46 1023.58 1023.74 1023.86 1023.98 1024.06 1024.14 1024.14 1024.14 1024.18 1024.22 1024.26 1024.26 1024.22 1024.26 1024.34
1012.06 1012.34 1012.66 1012.98 1013.26 1013.62 1013.94 1014.22 1014.42 1014.70 1014.98 1015.26 1015.46 1015.66 1015.90 1016.18 1016.46 1016.74 1017.02 1017.22 1017.30 1017.42 1017.62 1017.90 1018.14 1018.30 1018.46 1018.62 1018.82 1019.06 1019.26 1019.42 1019.58 1019.74 1019.94 1020.14 1020.30 1020.50 1020.70 1020.90 1021.10 1021.26 1021.46 1021.70 1021.90 1022.10 1022.26 1022.46 1022.58 1022.70 1022.82 1023.02 1023.26 1023.50 1023.70 1023.82 1023.94 1024.02 1024.10 1024.14 1024.18 1024.14 1024.10 1024.06 1024.06 1024.02 1024.02 1024.06 1024.14
1011.82 1012.10 1012.38 1012.70 1013.02 1013.38 1013.70 1013.98 1014.22 1014.46 1014.70 1014.98 1015.18 1015.34 1015.54 1015.82 1016.18 1016.58 1016.98 1017.26 1017.30 1017.42 1017.58 1017.94 1018.18 1018.34 1018.42 1018.54 1018.70 1018.86 1019.06 1019.26 1019.42 1019.54 1019.78 1019.98 1020.18 1020.38 1020.54 1020.74 1020.94 1021.10 1021.26 1021.50 1021.74 1021.94 1022.14 1022.30 1022.46 1022.58 1022.74 1022.98 1023.26 1023.54 1023.78 1023.94 1024.06 1024.10 1024.14 1024.18 1024.22 1024.18 1024.10 1023.98 1023.94 1023.90 1023.86 1023.94 1023.98
1011.54 1011.86 1012.10 1012.42 1012.82 1013.14 1013.42 1013.70 1013.98 1014.18 1014.42 1014.70 1014.94 1015.14 1015.30 1015.54 1015.90 1016.42 1016.82 1017.14 1017.22 1017.30 1017.54 1017.86 1018.14 1018.30 1018.42 1018.54 1018.66 1018.74 1018.90 1019.10 1019.26 1019.42 1019.62 1019.82 1020.02 1020.22 1020.42 1020.58 1020.78 1020.98 1021.14 1021.38 1021.62 1021.86 1022.02 1022.18 1022.38 1022.54 1022.70 1022.94 1023.26 1023.58 1023.86 1024.02 1024.14 1024.18 1024.26 1024.34 1024.30 1024.22 1024.06 1023.94 1023.86 1023.82 1023.78 1023.82 1023.82
1011.30 1011.58 1011.86 1012.18 1012.54 1012.86 1013.18 1013.46 1013.70 1013.90 1014.14 1014.42 1014.70 1014.90 1015.10 1015.30 1015.58 1016.06 1016.54 1016.86 1016.98 1017.14 1017.42 1017.74 1017.98 1018.22 1018.42 1018.54 1018.58 1018.66 1018.78 1018.94 1019.14 1019.26 1019.46 1019.70 1019.90 1020.14 1020.30 1020.46 1020.70 1020.86 1021.10 1021.30 1021.54 1021.82 1021.98 1022.18 1022.34 1022.50 1022.70 1022.98 1023.38 1023.66 1023.86 1023.98 1024.14 1024.30 1024.42 1024.46 1024.34 1024.14 1023.98 1023.86 1023.78 1023.70 1023.66 1023.70 1023.70
1011.06 1011.34 1011.62 1011.94 1012.26 1012.62 1012.90 1013.14 1013.38 1013.62 1013.86 1014.14 1014.42 1014.70 1014.86 1015.06 1015.34 1015.74 1016.18 1016.54 1016.70 1016.90 1017.26 1017.54 1017.86 1018.10 1018.26 1018.42 1018.50 1018.54 1018.66 1018.78 1018.98 1019.14 1019.34 1019.54 1019.78 1019.98 1020.22 1020.42 1020.58 1020.82 1021.02 1021.26 1021.54 1021.82 1022.02 1022.18 1022.38 1022.54 1022.82 1023.26 1023.58 1023.74 1023.86 1023.94 1024.18 1024.42 1024.54 1024.42 1024.26 1024.06 1023.90 1023.78 1023.70 1023.58 1023.54 1023.54 1023.50
1010.78 1011.06 1011.34 1011.66 1011.98 1012.30 1012.62 1012.90 1013.14 1013.34 1013.62 1013.94 1014.22 1014.46 1014.70 1014.86 1015.14 1015.46 1015.86 1016.14 1016.38 1016.66 1016.98 1017.26 1017.62 1017.86 1018.06 1018.22 1018.38 1018.42 1018.54 1018.66 1018.82 1018.98 1019.18 1019.42 1019.66 1019.90 1020.14 1020.30 1020.50 1020.74 1020.98 1021.22 1021.50 1021.78 1021.98 1022.18 1022.42 1022.74 1023.14 1023.58 1023.78 1023.82 1023.86 1023.98 1024.26 1024.42 1024.42 1024.30 1024.14 1023.94 1023.78 1023.66 1023.54 1023.50 1023.42 1023.38 1023.34
1010.54 1010.82 1011.14 1011.42 1011.70 1011.98 1012.34 1012.66 1012.90 1013.14 1013.42 1013.70 1013.98 1014.26 1014.50 1014.70 1014.90 1015.18 1015.50 1015.82 1016.10 1016.38 1016.70 1016.98 1017.30 1017.58 1017.82 1018.02 1018.18 1018.30 1018.42 1018.54 1018.70 1018.86 1019.10 1019.30 1019.54 1019.82 1020.02 1020.22 1020.42 1020.66 1020.86 1021.14 1021.42 1021.66 1021.90 1022.18 1022.54 1022.98 1023.46 1023.74 1023.82 1023.86 1023.94 1024.06 1024.18 1024.26 1024.22 1024.14 1023.94 1023.74 1023.62 1023.50 1023.42 1023.38 1023.30 1023.26 1023.18
1010.26 1010.54 1010.86 1011.14 1011.42 1011.74 1012.10 1012.42 1012.70 1012.98 1013.26 1013.54 1013.74 1014.02 1014.30 1014.54 1014.70 1014.98 1015.26 1015.54 1015.82 1016.14 1016.42 1016.70 1016.98 1017.26 1017.54 1017.82 1017.98 1018.14 1018.26 1018.42 1018.58 1018.82 1018.98 1019.22 1019.46 1019.70 1019.94 1020.10 1020.34 1020.54 1020.74 1020.98 1021.26 1021.54 1021.86 1022.26 1022.74 1023.22 1023.54 1023.74 1023.74 1023.78 1023.86 1023.98 1024.06 1024.06 1023.98 1023.90 1023.70 1023.54 1023.42 1023.30 1023.22 1023.18 1023.14 1023.06 1023.02
1010.10 1010.34 1010.58 1010.82 1011.18 1011.54 1011.86 1012.22 1012.50 1012.78 1013.06 1013.34 1013.54 1013.82 1014.10 1014.30 1014.54 1014.78 1015.02 1015.34 1015.70 1015.98 1016.22 1016.38 1016.62 1016.90 1017.26 1017.54 1017.74 1017.94 1018.10 1018.26 1018.46 1018.70 1018.90 1019.14 1019.34 1019.54 1019.82 1020.02 1020.26 1020.46 1020.70 1020.86 1021.14 1021.54 1021.94 1022.42 1022.86 1023.26 1023.50 1023.58 1023.62 1023.66 1023.70 1023.86 1023.86 1023.86 1023.78 1023.66 1023.50 1023.30 1023.18 1023.14 1023.06 1022.98 1022.94 1022.90 1022.82
1009.86 1010.10 1010.34 1010.62 1010.94 1011.26 1011.62 1011.98 1012.26 1012.54 1012.86 1013.14 1013.38 1013.62 1013.86 1014.14 1014.38 1014.62 1014.90 1015.26 1015.58 1015.86 1016.02 1016.14 1016.34 1016.58 1016.86 1017.18 1017.42 1017.66 1017.86 1018.10 1018.26 1018.50 1018.74 1018.98 1019.22 1019.42 1019.70 1019.98 1020.18 1020.38 1020.54 1020.78 1021.14 1021.58 1022.02 1022.50 1022.82 1023.14 1023.26 1023.34 1023.42 1023.46 1023.54 1023.62 1023.66 1023.58 1023.50 1023.38 1023.22 1023.10 1022.98 1022.94 1022.86 1022.82 1022.74 1022.70 1022.62
1009.70 1009.90 1010.14 1010.42 1010.70 1011.02 1011.38 1011.70 1011.98 1012.26 1012.58 1012.86 1013.14 1013.42 1013.70 1013.94 1014.22 1014.54 1014.82 1015.14 1015.42 1015.70 1015.86 1015.98 1016.10 1016.26 1016.50 1016.82 1017.06 1017.26 1017.54 1017.82 1018.02 1018.26 1018.50 1018.74 1018.98 1019.26 1019.54 1019.82 1020.02 1020.22 1020.50 1020.82 1021.26 1021.66 1022.02 1022.42 1022.70 1022.82 1022.94 1022.98 1023.10 1023.18 1023.30 1023.42 1023.42 1023.38 1023.22 1023.06 1022.90 1022.82 1022.70 1022.66 1022.62 1022.58 1022.54 1022.46 1022.42
1009.54 1009.78 1009.98 1010.18 1010.42 1010.74 1011.06 1011.38 1011.70 1011.98 1012.30 1012.58 1012.90 1013.18 1013.46 1013.74 1014.06 1014.42 1014.70 1014.98 1015.22 1015.42 1015.62 1015.70 1015.86 1015.98 1016.18 1016.42 1016.70 1016.98 1017.22 1017.50 1017.70 1017.94 1018.14 1018.42 1018.78 1019.14 1019.50 1019.86 1020.18 1020.42 1020.66 1020.94 1021.26 1021.54 1021.86 1022.14 1022.34 1022.46 1022.54 1022.66 1022.78 1022.98 1023.14 1023.26 1023.26 1023.14 1022.94 1022.74 1022.62 1022.54 1022.46 1022.42 1022.42 1022.42 1022.38 1022.26 1022.22
1009.42 1009.62 1009.82 1009.98 1010.26 1010.50 1010.78 1011.10 1011.42 1011.74 1012.06 1012.34 1012.66 1012.98 1013.26 1013.54 1013.86 1014.18 1014.50 1014.70 1014.94 1015.14 1015.30 1015.38 1015.50 1015.70 1015.98 1016.18 1016.46 1016.70 1016.98 1017.18 1017.42 1017.62 1017.90 1018.30 1018.82 1019.26 1019.66 1020.06 1020.34 1020.54 1020.66 1020.86 1021.06 1021.30 1021.58 1021.82 1021.94 1022.06 1022.26 1022.42 1022.62 1022.82 1022.98 1023.06 1023.06 1022.90 1022.70 1022.54 1022.42 1022.38 1022.34 1022.30 1022.30 1022.30 1022.26 1022.18 1022.10
1009.30 1009.50 1009.70 1009.86 1010.06 1010.26 1010.54 1010.82 1011.18 1011.50 1011.82 1012.14 1012.42 1012.78 1013.10 1013.38 1013.66 1013.94 1014.14 1014.42 1014.54 1014.74 1014.94 1015.06 1015.26 1015.50 1015.82 1016.06 1016.26 1016.54 1016.74 1016.94 1017.10 1017.30 1017.66 1018.14 1018.54 1018.94 1019.22 1019.54 1019.86 1020.06 1020.26 1020.54 1020.82 1021.14 1021.38 1021.54 1021.66 1021.82 1022.02 1022.26 1022.46 1022.66 1022.82 1022.86 1022.78 1022.62 1022.46 1022.34 1022.26 1022.26 1022.26 1022.26 1022.22 1022.18 1022.14 1022.10 1021.98
1009.18 1009.38 1009.54 1009.70 1009.90 1010.14 1010.38 1010.66 1010.98 1011.30 1011.66 1011.98 1012.26 1012.54 1012.82 1013.14 1013.42 1013.62 1013.86 1014.02 1014.26 1014.50 1014.70 1014.94 1015.18 1015.46 1015.74 1015.98 1016.14 1016.38 1016.58 1016.78 1016.98 1017.14 1017.42 1017.82 1018.10 1018.34 1018.62 1018.90 1019.26 1019.54 1019.86 1020.14 1020.50 1020.82 1021.14 1021.30 1021.46 1021.66 1021.86 1022.10 1022.26 1022.46 1022.58 1022.58 1022.50 1022.38 1022.26 1022.18 1022.14 1022.14 1022.18 1022.14 1022.14 1022.10 1022.02 1021.98 1021.86
1009.10 1009.30 1009.46 1009.62 1009.82 1009.98 1010.22 1010.50 1010.82 1011.14 1011.46 1011.74 1012.02 1012.30 1012.58 1012.86 1013.10 1013.34 1013.54 1013.86 1014.14 1014.42 1014.74 1015.02 1015.34 1015.62 1015.90 1016.14 1016.26 1016.42 1016.66 1016.90 1017.14 1017.34 1017.58 1017.86 1018.06 1018.34 1018.54 1018.74 1018.98 1019.22 1019.54 1019.90 1020.26 1020.58 1020.86 1021.06 1021.26 1021.46 1021.70 1021.98 1022.14 1022.26 1022.34 1022.30 1022.18 1022.10 1021.98 1022.02 1022.02 1022.06 1022.02 1022.02 1021.98 1021.94 1021.86 1021.82 1021.70
1008.98 1009.22 1009.42 1009.58 1009.78 1009.94 1010.14 1010.38 1010.66 1010.94 1011.22 1011.50 1011.78 1012.06 1012.34 1012.58 1012.86 1013.14 1013.46 1013.82 1014.14 1014.54 1014.90 1015.26 1015.62 1015.94 1016.18 1016.38 1016.58 1016.82 1017.10 1017.30 1017.50 1017.70 1017.98 1018.26 1018.46 1018.66 1018.78 1018.82 1018.98 1019.14 1019.42 1019.74 1020.10 1020.38 1020.62 1020.78 1021.02 1021.30 1021.58 1021.82 1021.94 1022.06 1022.14 1022.02 1021.94 1021.86 1021.86 1021.86 1021.86 1021.86 1021.86 1021.86 1021.78 1021.70 1021.66 1021.54 1021.50
1008.86 1009.14 1009.38 1009.54 1009.74 1009.90 1010.10 1010.26 1010.46 1010.70 1010.98 1011.30 1011.58 1011.86 1012.14 1012.42 1012.78 1013.14 1013.50 1013.86 1014.30 1014.70 1015.14 1015.54 1015.90 1016.18 1016.42 1016.58 1016.94 1017.26 1017.50 1017.74 1017.98 1018.22 1018.42 1018.62 1018.78 1018.90 1018.98 1019.06 1019.10 1019.18 1019.42 1019.70 1019.98 1020.18 1020.42 1020.58 1020.82 1021.14 1021.46 1021.70 1021.82 1021.86 1021.86 1021.78 1021.66 1021.62 1021.62 1021.62 1021.66 1021.66 1021.66 1021.62 1021.58 1021.54 1021.50 1021.42 1021.30
1008.74 1009.02 1009.30 1009.54 1009.74 1009.90 1010.06 1010.26 1010.54 1010.78 1011.06 1011.38 1011.70 1011.94 1012.26 1012.62 1012.98 1013.34 1013.70 1014.14 1014.54 1014.98 1015.42 1015.70 1015.98 1016.22 1016.42 1016.74 1017.06 1017.34 1017.58 1017.86 1018.18 1018.42 1018.62 1018.74 1018.94 1019.06 1019.14 1019.14 1019.18 1019.26 1019.50 1019.74 1019.90 1020.06 1020.26 1020.42 1020.74 1021.06 1021.38 1021.54 1021.70 1021.70 1021.62 1021.54 1021.42 1021.42 1021.42 1021.42 1021.46 1021.50 1021.50 1021.46 1021.42 1021.42 1021.34 1021.26 1021.14
1008.70 1008.98 1009.26 1009.50 1009.70 1009.98 1010.22 1010.54 1010.90 1011.14 1011.38 1011.66 1011.98 1012.30 1012.62 1012.94 1013.30 1013.66 1014.02 1014.42 1014.82 1015.22 1015.54 1015.86 1016.10 1016.30 1016.54 1016.82 1017.06 1017.30 1017.54 1017.86 1018.14 1018.38 1018.58 1018.74 1018.94 1019.02 1019.14 1019.18 1019.18 1019.38 1019.66 1019.86 1019.90 1019.98 1020.14 1020.38 1020.70 1020.98 1021.26 1021.42 1021.54 1021.54 1021.42 1021.34 1021.26 1021.26 1021.26 1021.30 1021.30 1021.30 1021.34 1021.34 1021.26 1021.22 1021.14 1021.14 1020.98
1008.70 1008.94 1009.22 1009.46 1009.82 1010.18 1010.58 1010.90 1011.18 1011.42 1011.66 1011.98 1012.26 1012.58 1012.90 1013.26 1013.62 1013.98 1014.30 1014.66 1014.98 1015.30 1015.62 1015.86 1016.14 1016.42 1016.62 1016.82 1017.06 1017.30 1017.54 1017.82 1018.10 1018.30 1018.54 1018.70 1018.82 1018.98 1019.06 1019.14 1019.06 1019.34 1019.70 1019.90 1019.94 1019.98 1020.14 1020.34 1020.66 1020.94 1021.18 1021.38 1021.42 1021.38 1021.26 1021.26 1021.22 1021.18 1021.18 1021.18 1021.18 1021.18 1021.18 1021.14 1021.14 1021.06 1020.98 1020.86 1020.78
1008.70 1008.98 1009.26 1009.54 1010.06 1010.50 1010.82 1011.14 1011.42 1011.66 1011.94 1012.22 1012.50 1012.82 1013.14 1013.42 1013.78 1014.14 1014.46 1014.78 1015.10 1015.34 1015.58 1015.86 1016.10 1016.38 1016.62 1016.78 1016.98 1017.26 1017.54 1017.78 1018.02 1018.26 1018.42 1018.58 1018.70 1018.78 1018.86 1018.94 1018.94 1019.26 1019.74 1019.98 1020.02 1020.10 1020.22 1020.42 1020.70 1020.94 1021.14 1021.30 1021.30 1021.26 1021.18 1021.14 1021.14 1021.14 1021.06 1020.98 1020.98 1020.98 1020.98 1020.94 1020.86 1020.82 1020.70 1020.62 1020.50
1008.82 1009.10 1009.42 1009.78 1010.26 1010.62 1010.94 1011.26 1011.54 1011.86 1012.14 1012.38 1012.70 1012.98 1013.26 1013.54 1013.82 1014.14 1014.46 1014.78 1015.10 1015.34 1015.58 1015.86 1016.06 1016.34 1016.54 1016.74 1016.94 1017.14 1017.42 1017.66 1017.86 1018.06 1018.26 1018.42 1018.50 1018.62 1018.74 1018.82 1018.86 1019.26 1019.70 1019.98 1020.10 1020.18 1020.34 1020.54 1020.70 1020.94 1021.10 1021.22 1021.22 1021.18 1021.14 1021.14 1021.06 1020.98 1020.90 1020.82 1020.82 1020.78 1020.70 1020.66 1020.58 1020.50 1020.42 1020.30 1020.18
1008.94 1009.26 1009.58 1009.94 1010.34 1010.70 1010.98 1011.26 1011.58 1011.90 1012.22 1012.42 1012.70 1012.98 1013.30 1013.54 1013.78 1014.06 1014.42 1014.74 1015.02 1015.26 1015.46 1015.70 1015.94 1016.14 1016.38 1016.54 1016.78 1017.02 1017.26 1017.46 1017.70 1017.90 1018.10 1018.26 1018.38 1018.50 1018.66 1018.82 1018.90 1019.26 1019.70 1019.98 1020.14 1020.26 1020.42 1020.58 1020.78 1020.94 1021.02 1021.14 1021.10 1021.06 1021.02 1020.98 1020.90 1020.82 1020.74 1020.70 1020.58 1020.54 1020.46 1020.42 1020.34 1020.26 1020.14 1019.98 1019.86
1009.02 1009.38 1009.70 1010.02 1010.30 1010.66 1010.98 1011.26 1011.54 1011.86 1012.18 1012.46 1012.70 1012.98 1013.26 1013.50 1013.74 1013.98 1014.30 1014.62 1014.82 1015.06 1015.26 1015.46 1015.66 1015.86 1016.06 1016.26 1016.54 1016.78 1017.02 1017.26 1017.46 1017.70 1017.86 1018.10 1018.26 1018.42 1018.62 1018.86 1018.98 1019.34 1019.74 1019.98 1020.18 1020.34 1020.50 1020.66 1020.78 1020.90 1020.98 1020.98 1020.94 1020.86 1020.82 1020.78 1020.70 1020.66 1020.54 1020.46 1020.38 1020.30 1020.22 1020.14 1020.06 1019.94 1019.78 1019.62 1019.46
1009.14 1009.46 1009.78 1010.02 1010.26 1010.58 1010.90 1011.18 1011.50 1011.86 1012.14 1012.46 1012.74 1012.98 1013.22 1013.42 1013.66 1013.90 1014.18 1014.46 1014.66 1014.78 1014.98 1015.14 1015.34 1015.54 1015.78 1016.02 1016.26 1016.54 1016.82 1017.06 1017.26 1017.50 1017.74 1017.98 1018.18 1018.42 1018.62 1018.86 1019.06 1019.34 1019.70 1019.98 1020.18 1020.34 1020.50 1020.62 1020.70 1020.82 1020.82 1020.78 1020.74 1020.70 1020.66 1020.58 1020.54 1020.50 1020.38 1020.26 1020.18 1020.06 1019.98 1019.90 1019.78 1019.58 1019.42 1019.22 1019.10
1009.14 1009.46 1009.74 1010.02 1010.26 1010.54 1010.86 1011.18 1011.54 1011.86 1012.18 1012.46 1012.74 1012.98 1013.18 1013.42 1013.54 1013.78 1014.02 1014.26 1014.42 1014.54 1014.70 1014.86 1015.06 1015.26 1015.54 1015.86 1016.14 1016.38 1016.66 1016.86 1017.18 1017.46 1017.74 1017.98 1018.18 1018.42 1018.62 1018.86 1019.10 1019.34 1019.66 1020.02 1020.18 1020.30 1020.42 1020.54 1020.54 1020.62 1020.62 1020.54 1020.54 1020.54 1020.50 1020.46 1020.42 1020.34 1020.26 1020.14 1019.98 1019.86 1019.74 1019.62 1019.46 1019.26 1019.02 1018.78 1018.70
1009.18 1009.50 1009.78 1010.06 1010.30 1010.54 1010.86 1011.18 1011.54 1011.90 1012.22 1012.46 1012.70 1012.94 1013.14 1013.30 1013.50 1013.70 1013.86 1014.10 1014.26 1014.42 1014.54 1014.70 1014.82 1015.10 1015.38 1015.70 1015.98 1016.26 1016.54 1016.90 1017.18 1017.50 1017.78 1017.98 1018.18 1018.42 1018.62 1018.86 1019.10 1019.30 1019.62 1019.98 1020.14 1020.26 1020.34 1020.34 1020.34 1020.42 1020.46 1020.46 1020.46 1020.42 1020.42 1020.42 1020.34 1020.22 1020.10 1019.98 1019.82 1019.66 1019.46 1019.26 1019.10 1018.86 1018.66 1018.42 1018.30
1009.26 1009.54 1009.86 1010.14 1010.38 1010.58 1010.86 1011.18 1011.54 1011.94 1012.26 1012.50 1012.70 1012.86 1013.06 1013.26 1013.42 1013.54 1013.70 1013.86 1014.02 1014.22 1014.42 1014.54 1014.74 1014.98 1015.30 1015.70 1015.98 1016.26 1016.62 1016.90 1017.18 1017.46 1017.74 1017.98 1018.18 1018.42 1018.62 1018.82 1019.02 1019.26 1019.50 1019.82 1020.02 1020.14 1020.14 1020.14 1020.14 1020.26 1020.42 1020.42 1020.46 1020.42 1020.42 1020.34 1020.26 1020.06 1019.90 1019.74 1019.62 1019.42 1019.22 1018.94 1018.70 1018.54 1018.34 1018.14 1017.98
Wind_Speed
13 12 11 10 9 9 9 8 8 8 9 9 10 10 10 10 10 9 9 9 8 8 8 8 9 9 10 13 14 14 14 13 13 13 12 12 11 11 11 11 11 11 10 10 10 9 9 8 7 6 5 5 5 6 5 5 5 6 6 5 5 5 5 5 5 5 5 5 4
14 14 12 11 10 9 9 9 9 9 9 9 9 10 10 10 10 10 10 10 9 8 8 8 9 10 12 14 15 14 14 13 14 14 13 13 13 12 12 11 11 11 11 11 11 9 8 8 7 6 5 5 5 6 6 5 6 6 7 7 5 5 5 5 5 5 5 5 4
15 14 14 13 12 11 10 9 10 11 11 10 10 10 10 9 9 9 10 10 10 10 9 8 10 11 13 15 14 13 13 13 14 14 13 13 13 13 13 12 12 12 12 11 11 9 8 8 7 6 5 5 6 6 6 6 6 6 7 7 5 4 4 4 5 5 5 4 5
16 15 14 14 15 15 13 10 12 13 13 11 11 10 10 9 9 9 9 11 11 11 10 9 10 11 12 13 14 13 13 13 15 14 14 13 13 14 14 13 13 13 12 11 11 10 9 9 7 5 5 6 7 7 6 6 7 6 6 6 5 5 5 4 4 4 4 4 5
17 15 14 14 16 16 14 12 13 13 12 11 10 10 9 9 9 9 10 10 11 11 11 12 11 11 12 13 15 15 14 14 14 14 13 13 14 14 14 14 14 13 12 12 11 11 10 10 7 5 6 7 6 6 6 7 7 7 6 5 5 5 5 4 4 4 4 4 4
16 16 15 14 16 15 13 12 14 13 12 11 11 11 10 9 9 10 10 11 11 12 13 14 12 12 12 14 15 15 15 15 14 13 13 14 13 14 14 15 14 13 12 12 12 11 10 9 6 5 6 6 6 7 7 8 8 7 6 5 5 5 5 5 5 5 5 5 6
17 17 16 15 16 15 13 13 13 12 12 11 13 13 13 11 11 12 12 11 11 12 13 12 12 13 14 15 15 15 14 14 14 14 14 13 13 14 14 14 14 14 13 13 12 12 10 9 6 6 6 6 6 7 8 8 8 7 7 6 5 5 5 6 5 5 5 7 7
17 17 17 17 17 16 16 15 14 12 11 11 13 15 15 14 14 14 13 12 11 11 12 11 13 15 15 16 15 15 15 15 14 14 14 13 14 14 15 14 14 14 14 13 13 12 11 9 6 6 6 6 5 7 8 9 9 8 7 7 6 5 5 5 5 5 6 8 8
16 17 17 17 17 17 17 16 15 14 13 12 13 14 14 14 14 14 13 12 11 12 12 11 14 16 17 17 17 16 16 15 15 15 14 14 15 15 15 14 15 14 14 13 13 13 12 8 7 6 6 6 6 7 8 10 10 9 8 7 6 6 6 5 6 7 7 8 8
16 17 17 17 17 17 17 17 16 15 14 13 13 13 13 13 13 13 12 11 11 12 12 12 14 16 17 17 17 16 16 15 15 16 16 15 16 16 16 14 15 15 14 13 13 13 12 9 8 7 7 7 7 8 9 10 10 9 8 6 6 7 8 7 8 8 9 8 9
18 18 17 16 18 18 17 17 16 15 14 12 12 12 12 13 13 13 12 11 11 13 13 13 14 15 16 16 16 16 16 14 15 15 16 16 16 17 17 15 16 15 15 14 13 12 11 9 9 9 9 8 8 8 9 10 10 9 8 6 7 8 9 9 9 9 9 9 10
18 18 17 17 18 18 18 17 15 14 14 13 13 13 13 13 14 13 13 13 13 13 13 13 14 15 15 14 15 15 15 15 15 15 16 16 17 17 17 17 17 16 16 15 14 12 10 10 10 11 11 10 8 7 8 9 9 9 9 8 8 8 9 10 10 10 9 10 10
18 18 17 17 18 18 18 17 15 14 14 15 14 14 14 14 14 14 14 14 13 13 12 12 14 14 14 14 14 14 15 15 16 15 15 16 16 17 17 17 17 17 16 15 14 12 11 11 12 12 11 11 8 7 7 8 8 8 8 9 9 10 10 11 11 11 10 11 10
18 18 18 18 18 18 17 17 15 14 14 16 15 14 14 14 14 13 13 13 13 12 11 11 12 12 13 14 14 15 15 15 16 16 16 16 16 17 17 16 17 17 15 14 14 13 13 12 12 12 12 11 9 8 7 7 7 8 8 9 10 11 12 12 12 12 11 11 11
18 18 18 18 18 17 16 17 14 14 14 15 14 13 13 13 13 12 12 13 14 12 11 11 11 11 13 14 15 15 16 15 16 16 16 16 16 17 17 16 17 16 15 14 13 13 13 13 13 12 11 10 9 8 8 7 7 7 7 9 11 12 13 13 13 12 12 12 12
18 18 18 18 18 17 16 16 13 13 14 14 14 13 13 12 12 11 12 14 13 12 11 11 11 11 12 14 15 15 16 15 16 16 16 16 16 17 16 16 16 16 15 15 14 13 12 12 11 10 10 9 9 8 9 8 7 7 8 10 12 13 14 14 13 13 13 13 13
19 19 18 18 18 18 17 16 14 13 14 14 15 14 14 12 11 11 12 14 13 12 12 13 12 12 12 13 14 14 14 15 15 15 15 15 16 16 16 16 16 16 16 15 14 13 12 11 9 8 8 8 8 9 9 8 6 7 9 12 13 14 14 14 13 13 13 14 14
19 19 19 18 19 19 18 17 15 15 15 16 16 15 14 13 12 12 12 14 14 14 15 15 13 13 13 14 13 13 13 14 14 14 14 15 15 16 16 16 15 15 15 14 14 13 12 11 9 8 7 7 9 9 8 6 6 8 11 13 14 14 14 14 14 14 13 14 14
18 19 19 19 19 19 19 18 17 16 16 16 16 15 15 14 14 13 13 15 16 16 16 16 14 14 14 15 14 13 12 13 14 14 14 14 15 15 15 15 15 15 15 14 14 13 12 10 9 8 8 9 9 8 7 6 7 9 11 13 14 15 15 14 14 14 14 14 14
18 18 18 18 19 18 18 18 17 16 15 15 15 16 16 16 15 15 15 16 16 16 16 16 15 15 15 15 15 14 13 12 13 14 14 14 14 14 15 15 14 14 14 14 13 13 11 10 9 9 10 12 10 8 7 7 8 10 12 13 14 14 15 14 14 14 15 15 15
18 18 18 18 18 17 17 17 17 16 16 15 16 16 16 16 16 16 16 16 16 16 16 16 16 15 15 16 16 15 14 11 12 13 13 13 14 14 14 14 14 14 14 13 12 11 11 10 10 11 12 13 11 9 8 8 9 11 12 13 13 14 14 14 14 15 15 15 15
17 17 17 17 17 17 16 16 16 16 16 15 15 15 16 15 15 15 15 15 15 16 16 16 16 16 16 16 17 16 14 11 12 13 13 12 13 13 13 13 14 14 13 12 11 11 10 10 11 13 14 13 11 10 9 8 9 11 13 14 14 14 15 15 14 15 15 15 16
16 15 15 15 16 16 16 16 16 16 16 16 15 15 15 15 15 15 15 15 15 16 16 15 15 16 17 17 17 17 15 13 13 13 13 13 13 13 13 12 13 13 11 9 10 10 10 11 13 15 15 13 12 11 9 9 10 12 13 14 15 15 15 14 14 14 14 15 15
15 15 14 13 15 16 16 16 16 16 16 16 15 15 15 15 15 15 15 15 16 16 17 15 15 15 16 17 17 17 17 16 16 15 15 14 13 12 12 10 9 8 7 7 9 10 11 11 13 14 15 13 11 10 9 10 11 13 14 14 14 14 14 13 13 14 14 15 14
15 15 14 13 14 15 15 15 16 16 16 15 15 15 15 15 15 15 16 16 17 18 18 17 16 15 15 15 16 16 16 17 17 17 16 14 13 12 10 9 7 7 7 8 10 12 13 12 12 13 13 12 10 9 9 11 13 14 14 13 13 12 12 12 13 14 14 15 14
14 14 14 14 14 14 15 15 15 15 15 15 15 15 15 15 15 16 17 17 18 18 18 18 16 14 13 13 15 15 15 15 15 16 16 15 15 15 13 12 11 10 9 10 13 15 16 15 13 12 11 11 10 10 10 11 13 14 14 13 12 11 11 11 12 13 14 14 14
14 14 14 14 14 14 14 14 14 14 15 14 15 15 15 15 15 16 17 17 17 17 16 15 13 12 11 12 14 14 13 12 13 15 17 17 18 18 16 14 13 11 11 12 15 17 18 17 16 14 13 11 11 11 11 12 13 13 13 11 11 11 11 12 13 13 14 14 15
13 13 13 13 14 14 14 14 14 14 15 15 15 15 15 16 16 16 16 16 15 14 12 10 9 8 8 9 11 12 13 12 13 14 16 17 17 17 16 14 13 11 11 14 17 18 19 19 18 17 15 13 12 12 13 13 13 12 10 9 10 11 12 12 12 13 13 14 14
13 13 13 13 13 13 13 13 14 14 15 15 15 15 16 16 16 15 14 13 13 11 9 7 6 6 6 7 9 10 12 12 12 13 14 15 16 15 15 14 13 12 12 15 18 20 20 21 20 19 17 15 12 11 12 12 11 10 9 8 9 10 11 11 11 12 12 13 13
13 12 12 12 12 12 12 13 13 13 13 13 13 14 14 13 12 12 12 13 12 11 9 7 7 7 8 9 9 10 10 11 11 11 12 14 14 14 14 13 12 11 12 16 19 21 22 22 21 20 18 16 14 12 12 11 10 9 8 8 9 11 12 12 13 13 13 12 13
12 12 12 12 12 11 11 9 7 7 8 8 8 9 9 10 11 11 12 12 12 11 10 10 10 11 11 11 10 11 11 11 11 11 12 13 14 14 13 13 12 10 10 17 20 22 22 22 21 20 18 16 13 12 12 11 10 9 8 9 10 12 12 12 13 13 14 14 14
11 11 11 11 10 9 6 6 7 8 9 9 9 9 10 11 11 11 11 11 11 11 11 11 11 12 12 12 11 12 12 12 12 12 12 13 13 13 13 12 12 10 11 17 20 21 21 21 20 19 18 16 13 12 12 11 10 10 10 11 13 13 13 12 12 13 15 16 16
10 10 10 10 8 7 8 9 10 10 10 10 11 11 11 11 11 11 11 11 11 11 12 12 12 12 12 12 12 12 12 12 12 12 13 13 14 13 13 12 11 10 12 17 18 19 20 20 19 18 16 15 12 11 12 11 10 9 10 11 13 14 15 15 14 15 15 17 17
9 9 9 8 8 9 10 10 10 10 10 10 10 11 11 11 11 11 11 10 10 11 11 11 12 12 12 12 12 13 12 12 12 13 14 14 14 14 13 12 9 9 13 16 16 17 17 17 17 16 15 14 11 10 11 12 11 10 11 12 13 14 15 15 16 16 17 18 17
9 9 9 9 10 10 10 10 10 9 9 9 10 10 10 11 11 11 11 10 10 10 11 11 11 11 11 12 12 13 13 13 13 14 15 15 15 14 13 12 9 10 14 16 15 15 15 15 15 14 13 11 9 9 11 12 12 13 13 14 15 15 16 16 16 16 17 18 18
9 9 9 10 10 10 10 10 10 9 9 9 9 10 11 11 11 11 11 11 10 11 11 11 11 12 12 12 12 13 13 14 14 15 15 15 14 13 12 12 10 11 15 16 15 14 14 14 13 13 12 10 9 9 10 11 11 12 14 15 15 16 16 16 16 16 17 17 18
10 10 10 10 10 10 10 10 10 10 10 10 10 10 11 11 11 10 10 10 11 11 12 12 12 13 13 13 12 12 13 14 14 14 14 13 13 12 11 10 9 11 14 16 15 14 13 13 13 13 12 10 10 10 10 10 10 11 13 14 15 15 15 15 15 16 17 18 18
10 10 10 10 10 10 10 10 10 10 10 10 10 10 10 10 10 10 10 10 11 11 12 12 12 13 13 13 12 12 13 13 13 13 12 11 11 11 10 9 9 10 12 15 15 14 14 14 15 15 14 12 11 11 10 9 9 10 11 12 12 13 14 13 13 14 15 17 17
11 10 10 10 10 10 10 10 10 10 10 10 10 10 10 10 9 9 10 10 10 11 11 11 12 12 12 12 11 11 12 12 11 10 10 10 9 9 9 8 8 9 11 14 15 15 15 16 17 17 15 12 11 9 8 7 9 10 11 11 11 12 13 13 12 13 14 16 17
10 10 10 9 9 9 10 10 10 10 10 10 10 10 10 9 9 9 9 9 10 10 10 10 11 10 10 10 10 10 10 10 10 10 9 9 9 8 8 8 8 9 11 14 15 16 17 18 18 16 14 10 9 8 7 7 8 10 11 11 10 11 11 12 12 12 13 15 15
10 9 9 9 8 8 9 10 10 9 9 9 9 9 8 8 8 9 9 8 9 8 8 8 9 9 9 8 8 9 9 10 10 10 10 9 9 8 8 9 9 9 11 13 16 17 18 18 17 15 12 9 8 7 7 7 8 10 11 11 11 11 11 12 11 11 12 13 13
Wind_Direction
186 181 177 178 179 179 179 180 182 180 179 183 182 179 177 177 176 177 178 179 181 183 184 185 184 184 183 181 180 181 179 174 170 171 175 181 184 184 182 178 173 171 169 168 166 166 167 165 161 158 157 159 160 160 160 164 169 172 173 172 169 170 175 183 179 179 183 189 188
186 182 178 176 178 180 180 180 182 181 182 186 184 181 180 179 177 178 179 180 181 182 184 185 185 184 183 180 180 179 176 171 169 171 177 184 184 182 180 176 173 172 171 169 168 168 169 167 163 160 159 161 162 163 165 171 171 173 174 172 170 172 178 185 183 184 188 196 192
187 183 179 178 180 181 182 182 183 183 183 186 185 183 181 181 179 179 180 180 181 182 183 184 185 184 182 179 179 177 174 169 169 173 178 184 183 181 178 175 174 173 172 170 170 171 170 167 164 162 163 165 166 167 168 174 174 175 175 174 171 174 180 185 185 186 190 199 196
189 185 182 181 183 184 185 186 185 184 184 185 185 183 182 182 180 180 180 180 181 182 183 183 183 182 180 178 177 175 171 169 171 175 179 184 182 180 177 174 174 173 173 172 173 172 171 168 166 165 167 168 168 169 171 174 176 177 177 176 175 178 181 184 185 187 192 201 199
191 187 184 184 185 186 187 189 187 185 184 185 184 183 182 183 182 181 182 181 182 183 182 182 180 178 177 177 175 172 170 171 173 177 181 184 182 179 176 174 174 173 173 173 174 173 172 171 169 169 171 172 172 173 173 174 177 178 178 177 179 181 184 185 185 189 194 201 201
192 189 186 184 186 187 188 190 188 186 185 186 185 184 183 184 184 184 184 184 184 182 181 179 177 175 174 174 172 171 170 173 176 180 182 184 182 179 177 175 174 173 173 173 174 174 174 174 172 172 174 176 175 175 175 176 179 180 180 179 181 185 188 189 188 191 196 204 204
192 190 187 185 187 188 189 189 188 187 187 189 188 186 185 186 186 186 185 184 183 181 180 179 177 174 172 172 171 171 172 175 178 181 183 183 181 179 177 176 175 174 173 174 174 175 177 179 176 175 175 178 178 177 177 179 182 184 184 182 182 186 192 194 192 195 202 208 208
192 191 189 186 188 190 191 189 188 188 189 193 191 189 188 189 189 188 186 184 183 182 181 180 177 174 171 171 171 172 173 176 178 181 183 182 180 179 178 177 176 175 175 175 176 177 179 182 181 177 175 181 181 179 179 183 186 188 188 186 184 187 193 197 197 201 207 211 212
193 192 191 187 189 191 192 191 189 189 193 198 197 194 192 193 194 191 189 187 186 184 182 181 177 174 171 171 172 173 175 177 178 181 182 182 180 179 178 178 178 177 176 177 178 179 181 184 184 181 178 183 184 181 181 185 189 192 193 192 188 188 193 199 203 207 210 212 213
193 192 191 189 189 191 192 192 190 191 193 200 202 200 197 195 195 194 193 192 189 186 184 181 176 173 172 173 173 175 177 178 179 180 182 182 180 178 178 178 179 178 178 178 179 181 183 186 187 184 181 184 186 183 181 185 192 196 198 199 195 195 197 202 207 211 213 215 215
194 193 192 190 189 190 192 193 192 191 192 196 202 203 201 196 195 195 195 195 192 190 187 181 175 174 174 175 175 176 178 179 179 181 182 182 180 179 178 179 180 180 179 179 180 182 184 187 190 187 183 183 185 184 183 186 194 199 203 208 207 206 207 209 211 215 217 217 217
195 194 192 191 190 190 191 193 193 193 192 193 198 201 201 196 196 196 197 197 195 192 188 180 175 174 175 176 177 178 179 180 180 181 182 182 181 180 179 180 181 181 181 179 180 182 184 187 191 188 185 181 182 183 186 189 196 202 208 215 218 219 219 218 218 219 221 220 219
196 195 193 192 191 190 191 194 194 193 192 193 196 197 196 194 194 196 199 200 198 194 188 179 176 176 177 178 178 179 179 181 181 182 182 182 181 181 181 181 183 183 182 180 181 183 185 187 191 190 186 180 178 181 187 192 199 206 212 219 225 229 230 228 227 226 227 226 225
197 196 194 193 191 191 192 193 194 194 193 192 194 195 194 190 191 196 201 205 202 196 186 177 177 179 181 180 180 180 180 181 182 183 182 182 182 182 183 183 184 184 183 181 183 184 186 187 190 190 186 178 176 178 185 194 203 210 218 225 232 236 238 237 235 234 233 232 232
197 197 195 193 191 191 192 193 194 193 192 191 192 193 192 190 189 195 203 208 203 196 185 177 179 182 183 183 183 183 182 182 184 184 184 182 183 184 184 185 185 185 183 181 183 185 187 188 189 189 185 176 175 178 185 194 204 214 224 233 238 241 242 242 241 239 238 236 236
197 197 196 194 192 192 192 193 193 192 191 189 190 192 193 191 189 194 203 209 203 195 185 180 181 183 185 186 186 186 185 184 186 186 185 184 184 185 186 186 186 186 184 181 182 185 188 188 188 185 180 174 177 184 191 195 202 216 230 239 242 244 245 245 244 243 242 240 240
197 197 196 194 193 193 193 193 194 193 191 189 190 193 195 193 189 193 200 204 199 193 188 184 182 183 185 187 188 189 188 187 187 188 187 185 185 186 187 188 187 186 184 181 181 183 186 186 180 175 172 174 189 196 197 191 198 217 232 240 244 246 248 248 249 248 248 246 244
197 197 197 195 194 194 194 194 195 194 192 190 191 193 195 195 191 192 197 201 196 193 190 187 184 184 185 187 190 191 191 190 189 189 189 187 187 187 188 189 187 186 184 180 180 182 183 178 167 162 168 186 201 203 198 185 200 220 233 241 245 248 250 251 251 251 251 251 250
198 198 198 197 196 196 195 195 196 195 194 191 192 193 195 196 193 193 194 196 194 193 192 188 186 185 186 188 190 192 193 192 191 191 191 190 188 188 189 188 187 186 184 180 179 178 176 164 156 161 179 199 204 200 190 185 207 225 236 243 247 249 250 251 252 252 253 253 253
199 200 200 199 198 197 197 196 196 195 194 193 193 193 194 196 194 193 192 192 192 192 192 190 187 186 187 188 190 191 193 193 192 192 192 191 190 189 189 188 185 185 184 181 177 172 164 153 157 174 192 205 201 192 185 193 216 230 239 245 249 250 252 253 254 254 254 254 255
201 202 202 201 200 199 198 197 196 195 194 194 194 194 194 195 194 193 191 189 189 191 193 192 189 186 186 187 189 190 191 190 191 191 191 191 191 190 189 186 184 184 185 182 171 161 154 154 170 187 199 203 194 187 187 202 222 235 242 247 249 251 253 255 256 256 256 256 256
203 204 204 203 202 200 199 197 197 195 194 194 194 193 193 193 192 191 189 186 187 190 194 194 190 188 186 187 188 188 187 186 187 188 189 189 190 189 187 183 184 186 185 175 160 153 155 167 184 196 201 199 190 187 192 209 228 240 245 248 250 251 253 254 255 256 257 257 257
204 205 206 205 203 201 199 198 197 196 195 194 194 193 192 190 189 188 186 185 186 189 193 195 192 190 187 187 187 185 183 180 182 184 185 186 187 186 185 183 185 183 175 160 153 156 166 181 194 200 200 194 188 189 199 216 233 243 248 250 251 252 253 254 255 257 258 258 259
205 206 206 206 204 202 200 198 197 196 196 194 194 193 191 188 187 185 185 186 187 189 192 194 193 190 188 186 185 183 180 177 179 181 182 181 183 184 183 180 177 170 161 155 161 169 178 189 198 199 197 191 188 192 204 222 236 244 250 252 253 255 256 258 260 261 262 263 264
206 207 207 207 205 203 201 198 197 196 196 195 194 192 191 188 186 186 186 188 189 191 193 195 192 188 184 182 181 180 178 177 178 177 176 172 175 176 176 171 170 169 169 170 175 181 187 194 196 195 191 187 188 196 210 226 238 245 249 253 255 258 260 263 264 265 266 267 267
207 208 208 208 206 203 201 199 197 196 196 195 193 192 191 189 188 189 190 191 192 192 193 193 189 183 178 177 177 176 175 176 175 172 169 168 173 175 175 175 177 180 181 180 184 190 193 193 188 184 183 186 191 201 214 228 237 243 248 252 255 258 261 263 264 265 266 267 268
207 208 208 208 207 205 202 199 197 196 195 195 194 193 192 191 192 192 193 194 193 192 190 188 182 176 173 175 175 174 172 171 170 169 170 172 176 177 178 179 180 183 184 184 188 192 191 184 177 175 178 188 196 206 217 229 236 241 246 251 254 257 260 261 263 264 265 267 268
205 207 208 208 208 206 203 200 197 196 196 196 195 194 194 194 195 195 194 193 189 184 179 173 167 164 165 171 173 171 169 167 170 172 175 178 180 181 182 184 185 186 187 185 187 187 183 174 171 174 180 190 200 210 220 229 235 239 243 248 252 255 257 259 261 262 264 266 267
203 204 206 208 208 207 205 202 200 198 198 197 197 197 197 198 196 193 188 181 174 166 159 151 145 147 157 168 170 170 169 170 174 178 181 185 186 187 188 190 192 191 187 181 181 178 175 170 172 177 184 192 201 211 221 228 233 237 241 246 249 252 255 257 259 262 264 266 266
200 201 204 206 208 208 208 208 205 201 197 196 197 197 196 192 184 176 168 161 157 151 145 140 143 154 164 169 170 172 174 177 180 184 188 192 193 195 196 197 201 195 182 172 173 172 171 170 173 178 185 192 200 211 221 227 232 236 241 246 249 253 255 258 261 264 265 267 267
197 198 200 203 207 210 210 204 190 175 167 165 173 173 167 156 151 149 148 149 147 144 144 147 155 164 171 173 175 178 181 182 183 188 192 196 199 200 202 204 206 195 173 167 169 170 170 170 174 179 184 189 198 210 221 228 232 237 242 247 251 254 257 260 262 265 266 268 269
196 197 199 201 202 198 182 143 123 120 124 129 132 132 131 133 136 139 142 145 145 148 152 158 166 172 177 180 182 185 186 184 185 189 193 197 201 202 205 211 206 190 169 170 170 170 169 170 175 179 184 188 197 211 222 230 235 241 246 250 253 255 257 260 262 264 266 267 268
196 197 197 195 178 151 127 116 117 120 124 129 130 132 133 136 139 143 146 149 153 158 164 170 175 179 183 186 188 189 189 188 188 191 194 198 201 202 205 214 204 182 167 174 172 170 169 171 176 181 185 189 199 212 224 232 239 244 248 250 253 255 257 259 261 263 264 265 266
194 193 187 172 147 133 126 125 126 128 133 139 141 143 145 147 150 153 156 160 163 168 174 179 182 185 189 192 192 192 191 192 192 195 197 201 203 202 203 211 200 173 164 176 174 172 171 173 178 182 186 190 201 215 227 235 241 245 248 251 253 255 257 259 261 262 263 264 264
184 179 171 157 146 142 140 140 139 141 146 152 154 156 158 160 162 164 166 167 170 175 181 186 189 191 194 196 196 195 194 195 197 198 200 203 203 202 202 208 195 168 162 175 175 174 174 176 181 185 188 191 205 219 230 236 241 245 248 251 254 256 258 260 262 263 264 265 265
171 167 163 159 156 155 156 158 158 161 166 172 173 173 173 173 173 173 173 173 177 183 189 193 196 198 199 200 200 198 197 198 199 200 202 203 203 201 200 205 192 168 162 173 176 177 178 181 185 189 192 198 212 223 230 236 241 245 249 252 254 257 259 262 263 264 265 265 264
164 164 165 167 168 169 171 173 174 176 179 182 182 181 181 181 181 181 180 181 187 193 197 200 202 202 203 202 201 200 199 199 200 200 200 200 199 197 195 199 190 171 164 173 177 180 183 186 191 194 198 206 217 225 230 235 241 246 250 253 256 259 261 263 264 265 264 263 262
167 168 170 175 177 178 177 176 177 177 177 179 180 182 184 186 187 187 187 188 196 201 204 206 206 205 203 201 200 199 199 198 197 196 194 193 193 191 190 193 190 175 168 175 179 183 188 193 198 201 203 210 218 224 230 236 241 247 251 254 258 260 262 264 264 264 263 262 260
169 172 174 179 181 180 177 173 173 172 173 175 180 184 187 191 193 192 192 194 201 206 209 210 208 204 201 198 196 195 194 193 189 186 184 185 187 186 185 188 191 180 172 177 182 187 194 201 204 205 206 212 219 225 231 237 244 249 253 257 260 263 264 264 264 263 263 262 259
168 171 174 178 180 179 176 171 169 169 170 175 181 186 190 194 197 198 197 198 203 207 210 210 207 201 196 191 190 187 184 184 181 179 178 182 183 182 181 187 193 183 174 177 186 193 201 207 209 208 207 213 221 229 236 241 248 252 255 258 261 263 264 263 262 262 263 263 260
162 165 168 172 176 176 174 169 166 165 169 176 183 188 192 195 200 201 200 198 200 203 206 206 201 193 183 176 177 176 176 179 179 178 178 183 182 180 181 189 194 186 179 180 190 199 206 211 211 208 206 212 222 231 238 244 250 254 256 259 261 262 263 264 264 264 264 265 265